Location: Sommers-Bausch Observatory
(40.0037°N, 105.2635°W)
Time: 04:20:20
(UTC-06:00)

Amateur Radio Satellites - All Passes

Search period start: 28 July 2014 03:50
Search period end: 29 July 2014 03:50
Location: Sommers-Bausch Observatory, 40.0037°N, 105.2635°W

Satellite Date Start Highest point End Downlink Frequencies (MHz)
Time Altitude Azimuth
TMSAT-1 28 Jul 04:01:10 04:06:25 63° 101° (E) 04:11:39 436.925 FM
ISS 28 Jul 04:08:03 04:09:28 12° 7° (N) 04:10:53 145.800 FM
AO-27 28 Jul 04:08:52 04:13:30 34° 292° (WNW) 04:18:06 436.795 MHz FM
Uribyol 2 28 Jul 04:09:43 04:14:15 32° 292° (WNW) 04:18:46 436.500 FM
Gurwin Techsat 1B 28 Jul 04:24:57 04:30:10 58° 287° (WNW) 04:35:21 435.225 FM
JAS-1B 28 Jul 04:50:28 04:59:21 47° 296° (WNW) 05:07:06 435.800 - 435.900 CW/SSB
KITSAT 1 28 Jul 05:05:32 05:10:19 17° 101° (E) 05:15:05 435.175 FM
OPAL 28 Jul 05:18:16 05:21:52 20° 264° (W) 05:25:28 ?
Uosat F 28 Jul 05:23:43 05:28:46 85° 104° (ESE) 05:33:46 435.120 FM
Lituanica SAT-1 28 Jul 05:30:00 05:31:05 21° 222° (SW) 05:32:10 437.275 MHz beacon
AO-7 28 Jul 05:39:22 05:47:45 82° 107° (ESE) 05:56:03 29.400 - 29.500 MHz
TMSAT-1 28 Jul 05:42:29 05:45:48 17° 298° (WNW) 05:49:08 436.925 FM
ISS 28 Jul 05:44:06 05:47:04 27° 26° (NNE) 05:50:00 145.800 FM
PANSAT 28 Jul 05:50:33 05:52:02 12° 169° (S) 05:53:32 not established
STRAND 1 28 Jul 06:00:14 06:04:23 25° 66° (ENE) 06:08:33 ?
JAS-2 28 Jul 06:00:35 06:03:29 14° 87° (E) 06:06:15 435.800 - 435.900 CW/SSB, 435.910 FM
JAS-1B 28 Jul 06:45:00 06:47:15 11° 318° (NW) 06:49:28 435.800 - 435.900 CW/SSB
MaSat-1 28 Jul 06:48:40 06:53:46 45° 59° (ENE) 06:58:37 437.345 MHz
Hamsat 28 Jul 06:48:45 06:52:59 54° 100° (E) 06:57:13 145.90 MHz
KITSAT 1 28 Jul 06:56:27 07:04:34 89° 118° (ESE) 07:12:43 435.175 FM
Uosat F 28 Jul 07:05:02 07:06:49 12° 301° (WNW) 07:08:35 435.120 FM
ISS 28 Jul 07:20:41 07:23:51 39° 224° (SW) 07:27:01 145.800 FM
PANSAT 28 Jul 07:29:18 07:31:30 15° 182° (S) 07:33:43 not established
Saudisat 1A 28 Jul 07:30:28 07:34:23 32° 114° (ESE) 07:38:20 436.775 MHz
AO-7 28 Jul 07:33:29 07:39:36 24° 306° (NW) 07:45:42 29.400 - 29.500 MHz
STRAND 1 28 Jul 07:38:35 07:43:22 38° 262° (W) 07:48:10 ?
JAS-2 28 Jul 07:43:25 07:49:24 70° 287° (WNW) 07:54:45 435.800 - 435.900 CW/SSB, 435.910 FM
SO-67 28 Jul 07:53:03 07:56:23 42° 99° (E) 07:59:41 435.3500 MHz FM
Hamsat 28 Jul 08:26:21 08:28:29 14° 295° (WNW) 08:30:37 145.90 MHz
MaSat-1 28 Jul 08:26:40 08:30:48 24° 257° (WSW) 08:34:45 437.345 MHz
PCSat 28 Jul 08:35:47 08:37:57 12° 39° (NE) 08:40:06 145.825 MHz
KITSAT 1 28 Jul 08:54:39 09:01:02 25° 321° (NW) 09:07:28 435.175 FM
Saudisat 1A 28 Jul 09:10:10 09:13:58 28° 311° (NW) 09:17:48 436.775 MHz
HO-68 28 Jul 09:14:48 09:20:52 29° 95° (E) 09:26:53 435.675 MHz FM
SO-67 28 Jul 09:28:08 09:29:03 11° 294° (WNW) 09:29:57 435.3500 MHz FM
Sapphire 28 Jul 09:43:45 09:48:41 34° 53° (NE) 09:53:35 437.095 MHz 1200 baud AX-25 AFSK
Oscar 11 28 Jul 09:47:01 09:49:38 16° 92° (E) 09:52:15 145.825 FM, Beacon 2401.500 USB
PCSat 28 Jul 10:17:00 10:22:25 67° 59° (ENE) 10:27:48 145.825 MHz
UKube-1 28 Jul 10:35:43 10:40:05 76° 285° (WNW) 10:44:24 145.840 MHz, 145.915 MHz
HO-68 28 Jul 11:01:56 11:08:48 52° 293° (WNW) 11:15:38 435.675 MHz FM
Oscar 11 28 Jul 11:21:54 11:26:01 44° 288° (WNW) 11:30:08 145.825 FM, Beacon 2401.500 USB
Sapphire 28 Jul 11:27:13 11:32:04 34° 250° (WSW) 11:36:53 437.095 MHz 1200 baud AX-25 AFSK
RS-15 28 Jul 11:39:36 11:43:37 13° 96° (E) 11:47:34 29.354 - 29.394 USB, Beacon 29.352 USB
FUNcube-1 28 Jul 11:41:09 11:45:20 74° 284° (WNW) 11:49:31 145.950 - 145.970 MHz USB
PCSat 28 Jul 12:02:01 12:05:13 16° 256° (WSW) 12:08:25 145.825 MHz
SO-50 28 Jul 12:04:09 12:07:29 21° 111° (ESE) 12:10:51 436.795 FM
Oscar 19 28 Jul 12:41:22 12:45:06 21° 64° (ENE) 12:48:52 437.125 CW, 437.150 USB
KITSAT 1 28 Jul 12:56:43 13:00:10 13° 22° (NNE) 13:03:35 435.175 FM
AO-Echo 28 Jul 13:03:12 13:06:31 17° 62° (ENE) 13:09:50 ?
Oscar 16 28 Jul 13:08:28 13:13:10 39° 69° (ENE) 13:17:54 437.025 USB, Beacon 2401.1428
ITAMSAT 1 28 Jul 13:28:31 13:32:51 27° 66° (ENE) 13:37:12 435.822 SSB
JAS-1B 28 Jul 13:42:03 13:50:00 37° 61° (ENE) 13:58:37 435.800 - 435.900 CW/SSB
RS-15 28 Jul 13:42:45 13:53:46 68° 115° (ESE) 14:04:33 29.354 - 29.394 USB, Beacon 29.352 USB
SO-50 28 Jul 13:43:31 13:47:45 41° 308° (NW) 13:52:04 436.795 FM
TMSAT-1 28 Jul 13:45:34 13:47:27 12° 59° (ENE) 13:49:19 436.925 FM
AO-27 28 Jul 13:46:56 13:51:48 41° 70° (ENE) 13:56:40 436.795 MHz FM
Uribyol 2 28 Jul 13:47:28 13:52:21 43° 70° (ENE) 13:57:14 436.500 FM
Gurwin Techsat 1B 28 Jul 14:06:42 14:11:01 26° 66° (ENE) 14:15:20 435.225 FM
UOSAT-12 28 Jul 14:07:48 14:11:41 27° 113° (ESE) 14:15:37 437.025 FM, 437.400 FM
Oscar 19 28 Jul 14:19:12 14:24:06 47° 261° (W) 14:29:03 437.125 CW, 437.150 USB
AO-Echo 28 Jul 14:39:28 14:44:43 65° 259° (W) 14:50:01 ?
AO-7 28 Jul 14:47:34 14:53:44 24° 54° (NE) 14:59:54 29.400 - 29.500 MHz
Oscar 16 28 Jul 14:48:31 14:52:37 24° 266° (W) 14:56:44 437.025 USB, Beacon 2401.1428
KITSAT 1 28 Jul 14:50:43 14:58:14 40° 49° (NE) 15:05:42 435.175 FM
Uosat F 28 Jul 15:00:47 15:03:10 14° 60° (ENE) 15:05:34 435.120 FM
ITAMSAT 1 28 Jul 15:07:24 15:12:11 36° 262° (W) 15:16:59 435.822 SSB
TMSAT-1 28 Jul 15:21:15 15:26:34 89° 74° (ENE) 15:31:54 436.925 FM
AO-27 28 Jul 15:27:17 15:31:26 24° 266° (W) 15:35:35 436.795 MHz FM
Uribyol 2 28 Jul 15:27:59 15:31:59 22° 266° (W) 15:36:00 436.500 FM
JAS-1B 28 Jul 15:31:16 15:39:52 60° 261° (W) 15:49:34 435.800 - 435.900 CW/SSB
Gurwin Techsat 1B 28 Jul 15:45:49 15:50:45 39° 262° (W) 15:55:44 435.225 FM
UOSAT-12 28 Jul 15:47:29 15:51:42 34° 310° (NW) 15:56:00 437.025 FM, 437.400 FM
OPAL 28 Jul 15:50:43 15:52:33 12° 92° (E) 15:54:22 ?
RS-15 28 Jul 15:56:47 16:06:51 39° 319° (NW) 16:16:52 29.354 - 29.394 USB, Beacon 29.352 USB
Saudisat 1A 28 Jul 15:57:46 16:01:23 24° 47° (NE) 16:04:58 436.775 MHz
Uosat F 28 Jul 16:36:16 16:41:18 76° 257° (WSW) 16:46:22 435.120 FM
AO-7 28 Jul 16:37:13 16:45:35 82° 253° (WSW) 16:54:01 29.400 - 29.500 MHz
KITSAT 1 28 Jul 16:46:05 16:53:46 50° 249° (WSW) 17:01:25 435.175 FM
TMSAT-1 28 Jul 17:06:55 17:07:09 10° 272° (W) 17:07:23 436.925 FM
OPAL 28 Jul 17:26:51 17:31:56 77° 287° (WNW) 17:37:03 ?
JAS-1B 28 Jul 17:30:40 17:32:27 11° 281° (W) 17:34:16 435.800 - 435.900 CW/SSB
Saudisat 1A 28 Jul 17:36:59 17:41:05 38° 244° (WSW) 17:45:08 436.775 MHz
Hamsat 28 Jul 17:41:43 17:45:30 35° 71° (ENE) 17:49:19 145.90 MHz
JAS-2 28 Jul 17:52:08 17:59:36 52° 70° (ENE) 18:06:39 435.800 - 435.900 CW/SSB, 435.910 FM
RS-15 28 Jul 18:16:32 18:23:36 19° 353° (N) 18:30:44 29.354 - 29.394 USB, Beacon 29.352 USB
SO-67 28 Jul 18:27:04 18:28:54 14° 68° (ENE) 18:30:44 435.3500 MHz FM
AO-7 28 Jul 18:35:07 18:39:29 15° 271° (W) 18:43:53 29.400 - 29.500 MHz
Hamsat 28 Jul 19:18:42 19:21:34 18° 267° (W) 19:24:29 145.90 MHz
JAS-2 28 Jul 19:37:50 19:44:42 33° 265° (W) 19:51:18 435.800 - 435.900 CW/SSB, 435.910 FM
HO-68 28 Jul 19:43:53 19:49:04 22° 58° (ENE) 19:54:16 435.675 MHz FM
STRAND 1 28 Jul 19:49:25 19:54:33 76° 103° (ESE) 19:59:38 ?
SO-67 28 Jul 19:58:33 20:01:41 31° 263° (W) 20:04:50 435.3500 MHz FM
RS-15 28 Jul 20:32:30 20:41:23 27° 29° (NNE) 20:50:25 29.354 - 29.394 USB, Beacon 29.352 USB
SO-50 28 Jul 20:35:35 20:39:10 21° 45° (NE) 20:42:46 436.795 FM
MaSat-1 28 Jul 20:40:40 20:43:28 18° 101° (E) 20:46:32 437.345 MHz
Oscar 11 28 Jul 20:42:49 20:44:33 12° 63° (ENE) 20:46:17 145.825 FM, Beacon 2401.500 USB
HO-68 28 Jul 21:28:53 21:36:03 74° 256° (WSW) 21:43:15 435.675 MHz FM
UKube-1 28 Jul 21:30:20 21:34:43 86° 76° (ENE) 21:39:06 145.840 MHz, 145.915 MHz
STRAND 1 28 Jul 21:30:38 21:33:04 14° 300° (WNW) 21:35:30 ?
SO-50 28 Jul 22:15:23 22:20:04 56° 242° (WSW) 22:24:46 436.795 FM
Oscar 11 28 Jul 22:15:57 22:20:12 61° 259° (W) 22:24:29 145.825 FM, Beacon 2401.500 USB
MaSat-1 28 Jul 22:16:28 22:20:20 39° 302° (WNW) 22:24:47 437.345 MHz
FUNcube-1 28 Jul 22:36:45 22:41:06 81° 77° (ENE) 22:45:21 145.950 - 145.970 MHz USB
UOSAT-12 28 Jul 22:37:44 22:41:33 24° 46° (NE) 22:45:19 437.025 FM, 437.400 FM
RS-15 28 Jul 22:44:48 22:55:54 76° 56° (ENE) 23:07:23 29.354 - 29.394 USB, Beacon 29.352 USB
HO-68 28 Jul 23:23:02 23:24:50 11° 273° (W) 23:26:39 435.675 MHz FM
ISS 29 Jul 00:02:07 00:05:27 86° 323° (NW) 00:08:49 145.800 FM
UOSAT-12 29 Jul 00:17:24 00:21:55 46° 244° (WSW) 00:26:21 437.025 FM, 437.400 FM
Sapphire 29 Jul 00:25:09 00:29:57 34° 110° (ESE) 00:34:46 437.095 MHz 1200 baud AX-25 AFSK
PCSat 29 Jul 00:57:52 01:03:13 72° 116° (ESE) 01:08:38 145.825 MHz
RS-15 29 Jul 00:58:22 01:07:11 29° 256° (WSW) 01:16:19 29.354 - 29.394 USB, Beacon 29.352 USB
Oscar 16 29 Jul 01:22:13 01:24:55 14° 91° (E) 01:27:37 437.025 USB, Beacon 2401.1428
ISS 29 Jul 01:40:11 01:42:34 18° 341° (NNW) 01:44:59 145.800 FM
AO-27 29 Jul 02:02:01 02:04:56 15° 91° (E) 02:07:50 436.795 MHz FM
Uribyol 2 29 Jul 02:02:09 02:05:13 16° 92° (E) 02:08:15 436.500 FM
Sapphire 29 Jul 02:08:25 02:13:19 34° 307° (NW) 02:18:15 437.095 MHz 1200 baud AX-25 AFSK
Oscar 19 29 Jul 02:31:09 02:36:18 65° 102° (ESE) 02:41:26 437.125 CW, 437.150 USB
PCSat 29 Jul 02:43:24 02:47:12 19° 315° (NW) 02:51:01 145.825 MHz
AO-Echo 29 Jul 02:47:55 02:52:45 44° 98° (E) 02:57:24 ?
Oscar 16 29 Jul 02:59:35 03:04:42 66° 287° (WNW) 03:09:49 437.025 USB, Beacon 2401.1428
OPAL 29 Jul 03:04:13 03:07:52 21° 62° (ENE) 03:11:32 ?
JAS-1B 29 Jul 03:18:59 03:28:08 56° 98° (E) 03:35:54 435.800 - 435.900 CW/SSB
ISS 29 Jul 03:19:09 03:20:21 11° 1° (N) 03:21:33 145.800 FM
ITAMSAT 1 29 Jul 03:20:26 03:25:38 85° 104° (ESE) 03:30:48 435.822 SSB
TMSAT-1 29 Jul 03:38:04 03:42:59 38° 98° (E) 03:47:52 436.925 FM
AO-27 29 Jul 03:39:44 03:44:52 62° 287° (WNW) 03:49:57 436.795 MHz FM
Uribyol 2 29 Jul 03:39:59 03:45:04 59° 287° (WNW) 03:50:07 436.500 FM
